Location: Linz
(48.3300°N, 14.3000°E)
Time: 10:22:40
(UTC+01:00)

OTV 5 (USA 277) - Pass Details

Date: 16 November 2017
Orbit: 404 x 417 km, 43.0° (Epoch: 07 September)

Event Time Altitude Azimuth Distance (km) Brightness Sun altitude
Exits shadow 04:57:55 29° 161° (SSE) 770 ? -22.1°
Drops below altitude 10° 05:00:18 10° 119° (ESE) 1,455 ? -21.7°
Sets 05:02:31 0° 109° (ESE) 2,314 ? -21.3°
